Location: Hannover
(52.3723°N, 9.7339°E)
Time: 11:33:48
(UTC+01:00)

METEOR M2 - Visible Passes

Search period start: 19 January 2020 00:00
Search period end: 29 January 2020 00:00
Orbit: 819 x 827 km, 98.5° (Epoch: 19 January)

Date Brightness Start Highest point End Pass type
(mag) Time Alt. Az. Time Alt. Az. Time Alt. Az.
19 Jan ? 07:29:38 10° NE 07:32:29 14° E 07:35:20 10° ESE visible
19 Jan ? 19:01:55 40° ENE 19:01:59 40° ENE 19:06:58 10° N visible
19 Jan ? 20:43:19 35° WNW 20:43:19 35° WNW 20:47:14 10° NNW visible
20 Jan ? 18:41:34 29° ENE 18:42:15 30° ENE 18:46:51 10° N visible
20 Jan ? 20:22:59 50° WNW 20:22:59 50° WNW 20:27:28 10° NNW visible
21 Jan ? 18:21:13 20° ENE 18:22:34 23° NE 18:26:38 10° N visible
21 Jan ? 20:02:38 73° WNW 20:02:38 73° WNW 20:07:37 10° NNW visible
21 Jan ? 21:44:01 14° WNW 21:44:01 14° WNW 21:46:05 10° NW visible
22 Jan ? 18:00:51 14° ENE 18:02:56 17° NE 18:06:19 10° NNE visible
22 Jan ? 19:42:16 77° ENE 19:42:18 77° ENE 19:47:42 10° NNW visible
22 Jan ? 21:23:40 20° W 21:23:40 20° W 21:27:00 10° NW visible
23 Jan ? 17:40:59 10° ENE 17:43:21 13° NE 17:45:43 10° NNE visible
23 Jan ? 19:21:53 53° E 19:22:27 55° ENE 19:27:42 10° N visible
23 Jan ? 21:03:18 28° W 21:03:18 28° W 21:07:32 10° NW visible
24 Jan ? 07:30:15 10° NE 07:33:11 15° E 07:36:07 10° ESE visible
24 Jan ? 19:01:32 36° E 19:02:39 40° ENE 19:07:39 10° N visible
24 Jan ? 20:42:56 39° W 20:42:56 39° W 20:47:54 10° NNW visible
25 Jan ? 18:41:09 25° E 18:42:55 30° ENE 18:47:33 10° N visible
25 Jan ? 20:22:34 54° WSW 20:22:50 55° W 20:28:08 10° NNW visible
26 Jan ? 18:20:47 17° E 18:23:14 23° NE 18:27:21 10° N visible
26 Jan ? 20:02:11 66° SSW 20:02:53 77° WSW 20:08:18 10° NNW visible
26 Jan ? 21:43:35 14° W 21:43:58 14° W 21:46:42 10° NW visible
27 Jan ? 18:00:24 11° E 18:03:36 17° NE 18:07:02 10° NNE visible
27 Jan ? 19:41:48 55° SE 19:42:59 78° ENE 19:48:22 10° NNW visible
27 Jan ? 21:23:11 19° W 21:23:46 20° W 21:27:38 10° NW visible
28 Jan ? 17:41:34 10° ENE 17:44:01 13° NE 17:46:28 10° NNE visible
28 Jan ? 19:21:24 39° ESE 19:23:07 56° ENE 19:28:24 10° N visible
28 Jan ? 21:02:48 26° WSW 21:03:37 28° W 21:08:12 10° NW visible
